Year,Month,Day,Hour,Minute,Value (Times are PST for temperature in C)
2013,09,17,00,00,10.90
2013,09,17,00,01,10.80
2013,09,17,00,02,10.80
2013,09,17,00,03,10.80
2013,09,17,00,04,10.80
2013,09,17,00,05,10.70
2013,09,17,00,06,10.70
2013,09,17,00,07,10.70
2013,09,17,00,08,10.70
2013,09,17,00,09,10.60
2013,09,17,00,10,10.60
2013,09,17,00,11,10.60
2013,09,17,00,12,10.60
2013,09,17,00,13,10.60
2013,09,17,00,14,10.60
2013,09,17,00,15,10.50
2013,09,17,00,16,10.50
2013,09,17,00,17,10.60
2013,09,17,00,18,10.60
2013,09,17,00,19,10.60
2013,09,17,00,20,10.60
2013,09,17,00,21,10.60
2013,09,17,00,22,10.60
2013,09,17,00,23,10.60
2013,09,17,00,24,10.60
2013,09,17,00,25,10.60
2013,09,17,00,26,10.60
2013,09,17,00,27,10.60
2013,09,17,00,28,10.60
2013,09,17,00,29,10.60
2013,09,17,00,30,10.60
2013,09,17,00,31,10.60
2013,09,17,00,32,10.60
2013,09,17,00,33,10.60
2013,09,17,00,34,10.60
2013,09,17,00,35,10.60
2013,09,17,00,36,10.60
2013,09,17,00,37,10.60
2013,09,17,00,38,10.60
2013,09,17,00,39,10.70
2013,09,17,00,40,10.60
2013,09,17,00,41,10.60
2013,09,17,00,42,10.60
2013,09,17,00,43,10.60
2013,09,17,00,44,10.60
2013,09,17,00,45,10.60
2013,09,17,00,46,10.60
2013,09,17,00,47,10.60
2013,09,17,00,48,10.60
2013,09,17,00,49,10.60
2013,09,17,00,50,10.60
2013,09,17,00,51,10.60
2013,09,17,00,52,10.60
2013,09,17,00,53,10.60
2013,09,17,00,54,10.50
2013,09,17,00,55,10.50
2013,09,17,00,56,10.50
2013,09,17,00,57,10.50
2013,09,17,00,58,10.50
2013,09,17,00,59,10.50
2013,09,17,01,00,10.50
2013,09,17,01,01,10.50
2013,09,17,01,02,10.50
2013,09,17,01,03,10.50
2013,09,17,01,04,10.50
2013,09,17,01,05,10.50
2013,09,17,01,06,10.60
2013,09,17,01,07,10.60
2013,09,17,01,08,10.60
2013,09,17,01,09,10.60
2013,09,17,01,10,10.70
2013,09,17,01,11,10.70
2013,09,17,01,12,10.70
2013,09,17,01,13,10.70
2013,09,17,01,14,10.70
2013,09,17,01,15,10.70
2013,09,17,01,16,10.60
2013,09,17,01,17,10.60
2013,09,17,01,18,10.60
2013,09,17,01,19,10.50
2013,09,17,01,20,10.50
2013,09,17,01,21,10.50
2013,09,17,01,22,10.40
2013,09,17,01,23,10.40
2013,09,17,01,24,10.40
2013,09,17,01,25,10.40
2013,09,17,01,26,10.40
2013,09,17,01,27,10.40
2013,09,17,01,28,10.30
2013,09,17,01,29,10.30
2013,09,17,01,30,10.30
2013,09,17,01,31,10.30
2013,09,17,01,32,10.30
2013,09,17,01,33,10.30
2013,09,17,01,34,10.30
2013,09,17,01,35,10.30
2013,09,17,01,36,10.20
2013,09,17,01,37,10.20
2013,09,17,01,38,10.20
2013,09,17,01,39,10.20
2013,09,17,01,40,10.20
2013,09,17,01,41,10.10
2013,09,17,01,42,10.10
2013,09,17,01,43,10.10
2013,09,17,01,44,10.10
2013,09,17,01,45,10.20
2013,09,17,01,46,10.20
2013,09,17,01,47,10.20
2013,09,17,01,48,10.20
2013,09,17,01,49,10.20
2013,09,17,01,50,10.20
2013,09,17,01,51,10.20
2013,09,17,01,52,10.20
2013,09,17,01,53,10.20
2013,09,17,01,54,10.20
2013,09,17,01,55,10.20
2013,09,17,01,56,10.20
2013,09,17,01,57,10.20
2013,09,17,01,58,10.30
2013,09,17,01,59,10.30
2013,09,17,02,00,10.30
2013,09,17,02,01,10.30
2013,09,17,02,02,10.30
2013,09,17,02,03,10.30
2013,09,17,02,04,10.30
2013,09,17,02,05,10.30
2013,09,17,02,06,10.30
2013,09,17,02,07,10.30
2013,09,17,02,08,10.30
2013,09,17,02,09,10.30
2013,09,17,02,10,10.30
2013,09,17,02,11,10.40
2013,09,17,02,12,10.40
2013,09,17,02,13,10.40
2013,09,17,02,14,10.40
2013,09,17,02,15,10.50
2013,09,17,02,16,10.50
2013,09,17,02,17,10.50
2013,09,17,02,18,10.50
2013,09,17,02,19,10.50
2013,09,17,02,20,10.60
2013,09,17,02,21,10.60
2013,09,17,02,22,10.60
2013,09,17,02,23,10.60
2013,09,17,02,24,10.70
2013,09,17,02,25,10.70
2013,09,17,02,26,10.70
2013,09,17,02,27,10.70
2013,09,17,02,28,10.80
2013,09,17,02,29,10.80
2013,09,17,02,30,10.80
2013,09,17,02,31,10.80
2013,09,17,02,32,10.80
2013,09,17,02,33,10.80
2013,09,17,02,34,10.80
2013,09,17,02,35,10.80
2013,09,17,02,36,10.80
2013,09,17,02,37,10.70
2013,09,17,02,38,10.70
2013,09,17,02,39,10.70
2013,09,17,02,40,10.70
2013,09,17,02,41,10.70
2013,09,17,02,42,10.70
2013,09,17,02,43,10.70
2013,09,17,02,44,10.70
2013,09,17,02,45,10.70
2013,09,17,02,46,10.70
2013,09,17,02,47,10.70
2013,09,17,02,48,10.70
2013,09,17,02,49,10.70
2013,09,17,02,50,10.70
2013,09,17,02,51,10.70
2013,09,17,02,52,10.70
2013,09,17,02,53,10.70
2013,09,17,02,54,10.70
2013,09,17,02,55,10.80
2013,09,17,02,56,10.80
2013,09,17,02,57,10.80
2013,09,17,02,58,10.80
2013,09,17,02,59,10.80
2013,09,17,03,00,10.80
2013,09,17,03,01,10.90
2013,09,17,03,02,10.90
2013,09,17,03,03,10.90
2013,09,17,03,04,10.90
2013,09,17,03,05,10.90
2013,09,17,03,06,10.90
2013,09,17,03,07,10.90
2013,09,17,03,08,10.90
2013,09,17,03,09,10.90
2013,09,17,03,10,10.90
2013,09,17,03,11,10.90
2013,09,17,03,12,10.90
2013,09,17,03,13,10.90
2013,09,17,03,14,10.90
2013,09,17,03,15,11.00
2013,09,17,03,16,11.00
2013,09,17,03,17,11.00
2013,09,17,03,18,11.00
2013,09,17,03,19,11.00
2013,09,17,03,20,11.00
2013,09,17,03,21,11.10
2013,09,17,03,22,11.10
2013,09,17,03,23,11.10
2013,09,17,03,24,11.10
2013,09,17,03,25,11.00
2013,09,17,03,26,11.00
2013,09,17,03,27,11.00
2013,09,17,03,28,11.00
2013,09,17,03,29,11.00
2013,09,17,03,30,10.90
2013,09,17,03,31,10.90
2013,09,17,03,32,10.90
2013,09,17,03,33,10.90
2013,09,17,03,34,10.90
2013,09,17,03,35,10.90
2013,09,17,03,36,10.90
2013,09,17,03,37,10.90
2013,09,17,03,38,10.90
2013,09,17,03,39,10.90
2013,09,17,03,40,10.90
2013,09,17,03,41,10.90
2013,09,17,03,42,10.90
2013,09,17,03,43,10.90
2013,09,17,03,44,10.90
2013,09,17,03,45,10.80
2013,09,17,03,46,10.80
2013,09,17,03,47,10.80
2013,09,17,03,48,10.80
2013,09,17,03,49,10.80
2013,09,17,03,50,10.80
2013,09,17,03,51,10.80
2013,09,17,03,52,10.70
2013,09,17,03,53,10.70
2013,09,17,03,54,10.60
2013,09,17,03,55,10.60
2013,09,17,03,56,10.60
2013,09,17,03,57,10.50
2013,09,17,03,58,10.40
2013,09,17,03,59,10.40
2013,09,17,04,00,10.40
2013,09,17,04,01,10.30
2013,09,17,04,02,10.30
2013,09,17,04,03,10.30
2013,09,17,04,04,10.20
2013,09,17,04,05,10.20
2013,09,17,04,06,10.20
2013,09,17,04,07,10.20
2013,09,17,04,08,10.20
2013,09,17,04,09,10.10
2013,09,17,04,10,10.10
2013,09,17,04,11,10.10
2013,09,17,04,12,10.00
2013,09,17,04,13,10.00
2013,09,17,04,14,10.00
2013,09,17,04,15,10.00
2013,09,17,04,16,9.90
2013,09,17,04,17,9.90
2013,09,17,04,18,9.90
2013,09,17,04,19,9.90
2013,09,17,04,20,9.90
2013,09,17,04,21,9.90
2013,09,17,04,22,9.80
2013,09,17,04,23,9.80
2013,09,17,04,24,9.80
2013,09,17,04,25,9.80
2013,09,17,04,26,9.80
2013,09,17,04,27,9.80
2013,09,17,04,28,9.80
2013,09,17,04,29,9.80
2013,09,17,04,30,9.80
2013,09,17,04,31,9.80
2013,09,17,04,32,9.80
2013,09,17,04,33,9.80
2013,09,17,04,34,9.80
2013,09,17,04,35,9.90
2013,09,17,04,36,9.90
2013,09,17,04,37,9.90
2013,09,17,04,38,9.90
2013,09,17,04,39,9.90
2013,09,17,04,40,9.90
2013,09,17,04,41,9.90
2013,09,17,04,42,9.90
2013,09,17,04,43,9.80
2013,09,17,04,44,9.80
2013,09,17,04,45,9.80
2013,09,17,04,46,9.80
2013,09,17,04,47,9.80
2013,09,17,04,48,9.80
2013,09,17,04,49,9.80
2013,09,17,04,50,9.80
2013,09,17,04,51,9.80
2013,09,17,04,52,9.80
2013,09,17,04,53,9.80
2013,09,17,04,54,9.80
2013,09,17,04,55,9.90
2013,09,17,04,56,9.90
2013,09,17,04,57,9.90
2013,09,17,04,58,9.90
2013,09,17,04,59,9.90
2013,09,17,05,00,9.90
2013,09,17,05,01,9.90
2013,09,17,05,02,9.90
2013,09,17,05,03,9.90
2013,09,17,05,04,9.80
2013,09,17,05,05,9.80
2013,09,17,05,06,9.80
2013,09,17,05,07,9.80
2013,09,17,05,08,9.80
2013,09,17,05,09,9.80
2013,09,17,05,10,9.80
2013,09,17,05,11,9.80
2013,09,17,05,12,9.80
2013,09,17,05,13,9.80
2013,09,17,05,14,9.80
2013,09,17,05,15,9.80
2013,09,17,05,16,9.70
2013,09,17,05,17,9.70
2013,09,17,05,18,9.70
2013,09,17,05,19,9.70
2013,09,17,05,20,9.70
2013,09,17,05,21,9.70
2013,09,17,05,22,9.70
2013,09,17,05,23,9.70
2013,09,17,05,24,9.70
2013,09,17,05,25,9.70
2013,09,17,05,26,9.70
2013,09,17,05,27,9.70
2013,09,17,05,28,9.70
2013,09,17,05,29,9.70
2013,09,17,05,30,9.70
2013,09,17,05,31,9.70
2013,09,17,05,32,9.70
2013,09,17,05,33,9.70
2013,09,17,05,34,9.70
2013,09,17,05,35,9.70
2013,09,17,05,36,9.60
2013,09,17,05,37,9.60
2013,09,17,05,38,9.60
2013,09,17,05,39,9.60
2013,09,17,05,40,9.60
2013,09,17,05,41,9.60
2013,09,17,05,42,9.60
2013,09,17,05,43,9.60
2013,09,17,05,44,9.60
2013,09,17,05,45,9.70
2013,09,17,05,46,9.70
2013,09,17,05,47,9.70
2013,09,17,05,48,9.70
2013,09,17,05,49,9.70
2013,09,17,05,50,9.70
2013,09,17,05,51,9.70
2013,09,17,05,52,9.70
2013,09,17,05,53,9.70
2013,09,17,05,54,9.70
2013,09,17,05,55,9.70
2013,09,17,05,56,9.70
2013,09,17,05,57,9.70
2013,09,17,05,58,9.70
2013,09,17,05,59,9.70
2013,09,17,06,00,9.70
2013,09,17,06,01,9.70
2013,09,17,06,02,9.70
2013,09,17,06,03,9.60
2013,09,17,06,04,9.60
2013,09,17,06,05,9.60
2013,09,17,06,06,9.60
2013,09,17,06,07,9.60
2013,09,17,06,08,9.60
2013,09,17,06,09,9.60
2013,09,17,06,10,9.60
2013,09,17,06,11,9.60
2013,09,17,06,12,9.60
2013,09,17,06,13,9.60
2013,09,17,06,14,9.60
2013,09,17,06,15,9.60
2013,09,17,06,16,9.60
2013,09,17,06,17,9.60
2013,09,17,06,18,9.60
2013,09,17,06,19,9.60
2013,09,17,06,20,9.60
2013,09,17,06,21,9.60
2013,09,17,06,22,9.60
2013,09,17,06,23,9.60
2013,09,17,06,24,9.60
2013,09,17,06,25,9.60
2013,09,17,06,26,9.60
2013,09,17,06,27,9.60
2013,09,17,06,28,9.60
2013,09,17,06,29,9.60
2013,09,17,06,30,9.60
2013,09,17,06,31,9.60
2013,09,17,06,32,9.60
2013,09,17,06,33,9.70
2013,09,17,06,34,9.70
2013,09,17,06,35,9.70
2013,09,17,06,36,9.70
2013,09,17,06,37,9.70
2013,09,17,06,38,9.70
2013,09,17,06,39,9.70
2013,09,17,06,40,9.70
2013,09,17,06,41,9.70
2013,09,17,06,42,9.70
2013,09,17,06,43,9.70
2013,09,17,06,44,9.70
2013,09,17,06,45,9.70
2013,09,17,06,46,9.70
2013,09,17,06,47,9.70
2013,09,17,06,48,9.70
2013,09,17,06,49,9.70
2013,09,17,06,50,9.70
2013,09,17,06,51,9.70
2013,09,17,06,52,9.70
2013,09,17,06,53,9.70
2013,09,17,06,54,9.70
2013,09,17,06,55,9.70
2013,09,17,06,56,9.70
2013,09,17,06,57,9.70
2013,09,17,06,58,9.60
2013,09,17,06,59,9.60
2013,09,17,07,00,9.60
2013,09,17,07,01,9.60
2013,09,17,07,02,9.60
2013,09,17,07,03,9.60
2013,09,17,07,04,9.60
2013,09,17,07,05,9.60
2013,09,17,07,06,9.70
2013,09,17,07,07,9.60
2013,09,17,07,08,9.60
2013,09,17,07,09,9.70
2013,09,17,07,10,9.70
2013,09,17,07,11,9.60
2013,09,17,07,12,9.70
2013,09,17,07,13,9.70
2013,09,17,07,14,9.70
2013,09,17,07,15,9.70
2013,09,17,07,16,9.70
2013,09,17,07,17,9.70
2013,09,17,07,18,9.70
2013,09,17,07,19,9.70
2013,09,17,07,20,9.80
2013,09,17,07,21,9.70
2013,09,17,07,22,9.80
2013,09,17,07,23,9.80
2013,09,17,07,24,9.80
2013,09,17,07,25,9.80
2013,09,17,07,26,9.80
2013,09,17,07,27,9.80
2013,09,17,07,28,9.80
2013,09,17,07,29,9.80
2013,09,17,07,30,9.80
2013,09,17,07,31,9.80
2013,09,17,07,32,9.80
2013,09,17,07,33,9.80
2013,09,17,07,34,9.80
2013,09,17,07,35,9.80
2013,09,17,07,36,9.90
2013,09,17,07,37,9.90
2013,09,17,07,38,9.90
2013,09,17,07,39,9.90
2013,09,17,07,40,9.90
2013,09,17,07,41,9.90
2013,09,17,07,42,9.90
2013,09,17,07,43,9.90
2013,09,17,07,44,10.00
2013,09,17,07,45,10.00
2013,09,17,07,46,10.00
2013,09,17,07,47,10.10
2013,09,17,07,48,10.10
2013,09,17,07,49,10.20
2013,09,17,07,50,10.20
2013,09,17,07,51,10.30
2013,09,17,07,52,10.30
2013,09,17,07,53,10.30
2013,09,17,07,54,10.30
2013,09,17,07,55,10.30
2013,09,17,07,56,10.30
2013,09,17,07,57,10.30
2013,09,17,07,58,10.30
2013,09,17,07,59,10.40
2013,09,17,08,00,10.40
2013,09,17,08,01,10.40
2013,09,17,08,02,10.40
2013,09,17,08,03,10.40
2013,09,17,08,04,10.40
2013,09,17,08,05,10.40
2013,09,17,08,06,10.40
2013,09,17,08,07,10.40
2013,09,17,08,08,10.40
2013,09,17,08,09,10.40
2013,09,17,08,10,10.40
2013,09,17,08,11,10.40
2013,09,17,08,12,10.50
2013,09,17,08,13,10.50
2013,09,17,08,14,10.50
2013,09,17,08,15,10.60
2013,09,17,08,16,10.60
2013,09,17,08,17,10.60
2013,09,17,08,18,10.60
2013,09,17,08,19,10.60
2013,09,17,08,20,10.70
2013,09,17,08,21,10.70
2013,09,17,08,22,10.70
2013,09,17,08,23,10.70
2013,09,17,08,24,10.80
2013,09,17,08,25,10.80
2013,09,17,08,26,10.90
2013,09,17,08,27,10.90
2013,09,17,08,28,11.00
2013,09,17,08,29,11.00
2013,09,17,08,30,11.10
2013,09,17,08,31,11.10
2013,09,17,08,32,11.20
2013,09,17,08,33,11.20
2013,09,17,08,34,11.30
2013,09,17,08,35,11.30
2013,09,17,08,36,11.40
2013,09,17,08,37,11.50
2013,09,17,08,38,11.50
2013,09,17,08,39,11.60
2013,09,17,08,40,11.70
2013,09,17,08,41,11.80
2013,09,17,08,42,11.90
2013,09,17,08,43,12.00
2013,09,17,08,44,12.10
2013,09,17,08,45,12.20
2013,09,17,08,46,12.30
2013,09,17,08,47,12.40
2013,09,17,08,48,12.50
2013,09,17,08,49,12.60
2013,09,17,08,50,12.80
2013,09,17,08,51,12.90
2013,09,17,08,52,13.00
2013,09,17,08,53,13.10
2013,09,17,08,54,13.20
2013,09,17,08,55,13.30
2013,09,17,08,56,13.50
2013,09,17,08,57,13.60
2013,09,17,08,58,13.70
2013,09,17,08,59,13.80
2013,09,17,09,00,13.90
2013,09,17,09,01,14.00
2013,09,17,09,02,14.10
2013,09,17,09,03,14.20
2013,09,17,09,04,14.20
2013,09,17,09,05,14.30
2013,09,17,09,06,14.40
2013,09,17,09,07,14.50
2013,09,17,09,08,14.60
2013,09,17,09,09,14.70
2013,09,17,09,10,14.80
2013,09,17,09,11,14.90
2013,09,17,09,12,15.00
2013,09,17,09,13,15.00
2013,09,17,09,14,15.00
2013,09,17,09,15,15.00
2013,09,17,09,16,15.00
2013,09,17,09,17,15.00
2013,09,17,09,18,15.10
2013,09,17,09,19,15.20
2013,09,17,09,20,15.20
2013,09,17,09,21,15.20
2013,09,17,09,22,15.30
2013,09,17,09,23,15.30
2013,09,17,09,24,15.30
2013,09,17,09,25,15.30
2013,09,17,09,26,15.30
2013,09,17,09,27,15.40
2013,09,17,09,28,15.40
2013,09,17,09,29,15.40
2013,09,17,09,30,15.50
2013,09,17,09,31,15.50
2013,09,17,09,32,15.60
2013,09,17,09,33,15.70
2013,09,17,09,34,15.70
2013,09,17,09,35,15.80
2013,09,17,09,36,15.80
2013,09,17,09,37,15.80
2013,09,17,09,38,15.80
2013,09,17,09,39,15.90
2013,09,17,09,40,15.90
2013,09,17,09,41,15.90
2013,09,17,09,42,15.90
2013,09,17,09,43,16.00
2013,09,17,09,44,16.10
2013,09,17,09,45,16.10
2013,09,17,09,46,16.20
2013,09,17,09,47,16.20
2013,09,17,09,48,16.30
2013,09,17,09,49,16.30
2013,09,17,09,50,16.30
2013,09,17,09,51,16.40
2013,09,17,09,52,16.50
2013,09,17,09,53,16.60
2013,09,17,09,54,16.60
2013,09,17,09,55,16.70
2013,09,17,09,56,16.70
2013,09,17,09,57,16.70
2013,09,17,09,58,16.80
2013,09,17,09,59,16.80
2013,09,17,10,00,16.80
2013,09,17,10,01,16.90
2013,09,17,10,02,16.80
2013,09,17,10,03,16.80
2013,09,17,10,04,16.80
2013,09,17,10,05,16.80
2013,09,17,10,06,16.70
2013,09,17,10,07,16.70
2013,09,17,10,08,16.70
2013,09,17,10,09,16.60
2013,09,17,10,10,16.50
2013,09,17,10,11,16.40
2013,09,17,10,12,16.40
2013,09,17,10,13,16.40
2013,09,17,10,14,16.40
2013,09,17,10,15,16.40
2013,09,17,10,16,16.30
2013,09,17,10,17,16.30
2013,09,17,10,18,16.30
2013,09,17,10,19,16.20
2013,09,17,10,20,16.30
2013,09,17,10,21,16.30
2013,09,17,10,22,16.30
2013,09,17,10,23,16.30
2013,09,17,10,24,16.30
2013,09,17,10,25,16.30
2013,09,17,10,26,16.30
2013,09,17,10,27,16.40
2013,09,17,10,28,16.50
2013,09,17,10,29,16.50
2013,09,17,10,30,16.60
2013,09,17,10,31,16.60
2013,09,17,10,32,16.70
2013,09,17,10,33,16.70
2013,09,17,10,34,16.80
2013,09,17,10,35,16.80
2013,09,17,10,36,16.80
2013,09,17,10,37,16.80
2013,09,17,10,38,16.80
2013,09,17,10,39,16.80
2013,09,17,10,40,16.80
2013,09,17,10,41,16.80
2013,09,17,10,42,16.90
2013,09,17,10,43,17.00
2013,09,17,10,44,17.10
2013,09,17,10,45,17.10
2013,09,17,10,46,17.20
2013,09,17,10,47,17.30
2013,09,17,10,48,17.30
2013,09,17,10,49,17.30
2013,09,17,10,50,17.30
2013,09,17,10,51,17.30
2013,09,17,10,52,17.40
2013,09,17,10,53,17.40
2013,09,17,10,54,17.40
2013,09,17,10,55,17.40
2013,09,17,10,56,17.30
2013,09,17,10,57,17.20
2013,09,17,10,58,17.10
2013,09,17,10,59,17.00
2013,09,17,11,00,16.90
2013,09,17,11,01,16.80
2013,09,17,11,02,16.70
2013,09,17,11,03,16.60
2013,09,17,11,04,16.50
2013,09,17,11,05,16.40
2013,09,17,11,06,16.40
2013,09,17,11,07,16.40
2013,09,17,11,08,16.40
2013,09,17,11,09,16.50
2013,09,17,11,10,16.50
2013,09,17,11,11,16.50
2013,09,17,11,12,16.60
2013,09,17,11,13,16.60
2013,09,17,11,14,16.60
2013,09,17,11,15,16.60
2013,09,17,11,16,16.70
2013,09,17,11,17,16.70
2013,09,17,11,18,16.80
2013,09,17,11,19,16.80
2013,09,17,11,20,16.90
2013,09,17,11,21,17.00
2013,09,17,11,22,17.00
2013,09,17,11,23,17.00
2013,09,17,11,24,17.00
2013,09,17,11,25,17.00
2013,09,17,11,26,16.90
2013,09,17,11,27,16.80
2013,09,17,11,28,16.70
2013,09,17,11,29,16.60
2013,09,17,11,30,16.50
2013,09,17,11,31,16.40
2013,09,17,11,32,16.30
2013,09,17,11,33,16.20
2013,09,17,11,34,16.20
2013,09,17,11,35,16.10
2013,09,17,11,36,16.10
2013,09,17,11,37,16.10
2013,09,17,11,38,16.10
2013,09,17,11,39,16.10
2013,09,17,11,40,16.10
2013,09,17,11,41,16.20
2013,09,17,11,42,16.20
2013,09,17,11,43,16.30
2013,09,17,11,44,16.40
2013,09,17,11,45,16.50
2013,09,17,11,46,16.50
2013,09,17,11,47,16.60
2013,09,17,11,48,16.70
2013,09,17,11,49,16.80
2013,09,17,11,50,16.80
2013,09,17,11,51,16.80
2013,09,17,11,52,16.70
2013,09,17,11,53,16.80
2013,09,17,11,54,16.90
2013,09,17,11,55,17.00
2013,09,17,11,56,17.10
2013,09,17,11,57,17.30
2013,09,17,11,58,17.30
2013,09,17,11,59,17.40
2013,09,17,12,00,17.30
2013,09,17,12,01,17.20
2013,09,17,12,02,17.10
2013,09,17,12,03,17.00
2013,09,17,12,04,16.90
2013,09,17,12,05,16.90
2013,09,17,12,06,16.90
2013,09,17,12,07,16.90
2013,09,17,12,08,16.90
2013,09,17,12,09,16.90
2013,09,17,12,10,16.90
2013,09,17,12,11,16.90
2013,09,17,12,12,16.90
2013,09,17,12,13,16.90
2013,09,17,12,14,17.00
2013,09,17,12,15,17.10
2013,09,17,12,16,17.10
2013,09,17,12,17,17.20
2013,09,17,12,18,17.20
2013,09,17,12,19,17.20
2013,09,17,12,20,17.30
2013,09,17,12,21,17.30
2013,09,17,12,22,17.30
2013,09,17,12,23,17.30
2013,09,17,12,24,17.30
2013,09,17,12,25,17.20
2013,09,17,12,26,17.20
2013,09,17,12,27,17.20
2013,09,17,12,28,17.20
2013,09,17,12,29,17.30
2013,09,17,12,30,17.30
2013,09,17,12,31,17.40
2013,09,17,12,32,17.40
2013,09,17,12,33,17.40
2013,09,17,12,34,17.50
2013,09,17,12,35,17.50
2013,09,17,12,36,17.60
2013,09,17,12,37,17.60
2013,09,17,12,38,17.60
2013,09,17,12,39,17.60
2013,09,17,12,40,17.60
2013,09,17,12,41,17.60
2013,09,17,12,42,17.70
2013,09,17,12,43,17.70
2013,09,17,12,44,17.70
2013,09,17,12,45,17.60
2013,09,17,12,46,17.50
2013,09,17,12,47,17.50
2013,09,17,12,48,17.40
2013,09,17,12,49,17.40
2013,09,17,12,50,17.40
2013,09,17,12,51,17.40
2013,09,17,12,52,17.30
2013,09,17,12,53,17.30
2013,09,17,12,54,17.30
2013,09,17,12,55,17.30
2013,09,17,12,56,17.30
2013,09,17,12,57,17.40
2013,09,17,12,58,17.50
2013,09,17,12,59,17.50
2013,09,17,13,00,17.50
2013,09,17,13,01,17.40
2013,09,17,13,02,17.30
2013,09,17,13,03,17.30
2013,09,17,13,04,17.20
2013,09,17,13,05,17.20
2013,09,17,13,06,17.10
2013,09,17,13,07,17.10
2013,09,17,13,08,17.10
2013,09,17,13,09,17.00
2013,09,17,13,10,16.90
2013,09,17,13,11,16.80
2013,09,17,13,12,16.80
2013,09,17,13,13,16.80
2013,09,17,13,14,16.80
2013,09,17,13,15,16.80
2013,09,17,13,16,16.90
2013,09,17,13,17,16.90
2013,09,17,13,18,16.90
2013,09,17,13,19,16.90
2013,09,17,13,20,16.90
2013,09,17,13,21,16.90
2013,09,17,13,22,16.90
2013,09,17,13,23,16.90
2013,09,17,13,24,16.90
2013,09,17,13,25,16.90
2013,09,17,13,26,16.90
2013,09,17,13,27,16.90
2013,09,17,13,28,16.80
2013,09,17,13,29,16.90
2013,09,17,13,30,16.90
2013,09,17,13,31,16.90
2013,09,17,13,32,16.90
2013,09,17,13,33,17.00
2013,09,17,13,34,17.10
2013,09,17,13,35,17.10
2013,09,17,13,36,17.20
2013,09,17,13,37,17.20
2013,09,17,13,38,17.20
2013,09,17,13,39,17.20
2013,09,17,13,40,17.20
2013,09,17,13,41,17.20
2013,09,17,13,42,17.30
2013,09,17,13,43,17.40
2013,09,17,13,44,17.50
2013,09,17,13,45,17.60
2013,09,17,13,46,17.70
2013,09,17,13,47,17.80
2013,09,17,13,48,17.80
2013,09,17,13,49,17.90
2013,09,17,13,50,17.90
2013,09,17,13,51,17.90
2013,09,17,13,52,17.90
2013,09,17,13,53,17.90
2013,09,17,13,54,18.00
2013,09,17,13,55,18.00
2013,09,17,13,56,18.10
2013,09,17,13,57,18.10
2013,09,17,13,58,18.10
2013,09,17,13,59,18.20
2013,09,17,14,00,18.20
2013,09,17,14,01,18.20
2013,09,17,14,02,18.20
2013,09,17,14,03,18.10
2013,09,17,14,04,18.10
2013,09,17,14,05,18.10
2013,09,17,14,06,18.20
2013,09,17,14,07,18.20
2013,09,17,14,08,18.30
2013,09,17,14,09,18.30
2013,09,17,14,10,18.30
2013,09,17,14,11,18.40
2013,09,17,14,12,18.40
2013,09,17,14,13,18.40
2013,09,17,14,14,18.50
2013,09,17,14,15,18.50
2013,09,17,14,16,18.60
2013,09,17,14,17,18.60
2013,09,17,14,18,18.60
2013,09,17,14,19,18.60
2013,09,17,14,20,18.70
2013,09,17,14,21,18.60
2013,09,17,14,22,18.60
2013,09,17,14,23,18.50
2013,09,17,14,24,18.50
2013,09,17,14,25,18.60
2013,09,17,14,26,18.60
2013,09,17,14,27,18.60
2013,09,17,14,28,18.70
2013,09,17,14,29,18.80
2013,09,17,14,30,18.80
2013,09,17,14,31,18.80
2013,09,17,14,32,18.70
2013,09,17,14,33,18.60
2013,09,17,14,34,18.50
2013,09,17,14,35,18.40
2013,09,17,14,36,18.30
2013,09,17,14,37,18.20
2013,09,17,14,38,18.10
2013,09,17,14,39,18.10
2013,09,17,14,40,18.10
2013,09,17,14,41,18.00
2013,09,17,14,42,18.00
2013,09,17,14,43,18.00
2013,09,17,14,44,18.00
2013,09,17,14,45,17.90
2013,09,17,14,46,17.90
2013,09,17,14,47,17.90
2013,09,17,14,48,17.90
2013,09,17,14,49,17.90
2013,09,17,14,50,17.90
2013,09,17,14,51,17.90
2013,09,17,14,52,17.80
2013,09,17,14,53,17.80
2013,09,17,14,54,17.70
2013,09,17,14,55,17.70
2013,09,17,14,56,17.70
2013,09,17,14,57,17.70
2013,09,17,14,58,17.70
2013,09,17,14,59,17.60
2013,09,17,15,00,17.60
2013,09,17,15,01,17.60
2013,09,17,15,02,17.70
2013,09,17,15,03,17.70
2013,09,17,15,04,17.70
2013,09,17,15,05,17.70
2013,09,17,15,06,17.70
2013,09,17,15,07,17.70
2013,09,17,15,08,17.70
2013,09,17,15,09,17.80
2013,09,17,15,10,17.80
2013,09,17,15,11,17.90
2013,09,17,15,12,17.90
2013,09,17,15,13,18.00
2013,09,17,15,14,18.10
2013,09,17,15,15,18.10
2013,09,17,15,16,18.20
2013,09,17,15,17,18.20
2013,09,17,15,18,18.20
2013,09,17,15,19,18.20
2013,09,17,15,20,18.30
2013,09,17,15,21,18.30
2013,09,17,15,22,18.40
2013,09,17,15,23,18.40
2013,09,17,15,24,18.50
2013,09,17,15,25,18.50
2013,09,17,15,26,18.50
2013,09,17,15,27,18.60
2013,09,17,15,28,18.60
2013,09,17,15,29,18.70
2013,09,17,15,30,18.70
2013,09,17,15,31,18.70
2013,09,17,15,32,18.80
2013,09,17,15,33,18.90
2013,09,17,15,34,18.90
2013,09,17,15,35,18.90
2013,09,17,15,36,18.90
2013,09,17,15,37,18.90
2013,09,17,15,38,18.80
2013,09,17,15,39,18.70
2013,09,17,15,40,18.60
2013,09,17,15,41,18.50
2013,09,17,15,42,18.40
2013,09,17,15,43,18.30
2013,09,17,15,44,18.20
2013,09,17,15,45,18.20
2013,09,17,15,46,18.20
2013,09,17,15,47,18.10
2013,09,17,15,48,18.10
2013,09,17,15,49,18.10
2013,09,17,15,50,18.20
2013,09,17,15,51,18.20
2013,09,17,15,52,18.20
2013,09,17,15,53,18.20
2013,09,17,15,54,18.20
2013,09,17,15,55,18.10
2013,09,17,15,56,18.10
2013,09,17,15,57,18.00
2013,09,17,15,58,18.00
2013,09,17,15,59,18.00
2013,09,17,16,00,18.10
2013,09,17,16,01,18.10
2013,09,17,16,02,18.10
2013,09,17,16,03,18.10
2013,09,17,16,04,18.20
2013,09,17,16,05,18.20
2013,09,17,16,06,18.20
2013,09,17,16,07,18.20
2013,09,17,16,08,18.20
2013,09,17,16,09,18.20
2013,09,17,16,10,18.20
2013,09,17,16,11,18.20
2013,09,17,16,12,18.20
2013,09,17,16,13,18.30
2013,09,17,16,14,18.30
2013,09,17,16,15,18.30
2013,09,17,16,16,18.30
2013,09,17,16,17,18.40
2013,09,17,16,18,18.40
2013,09,17,16,19,18.50
2013,09,17,16,20,18.60
2013,09,17,16,21,18.70
2013,09,17,16,22,18.70
2013,09,17,16,23,18.70
2013,09,17,16,24,18.70
2013,09,17,16,25,18.70
2013,09,17,16,26,18.70
2013,09,17,16,27,18.70
2013,09,17,16,28,18.70
2013,09,17,16,29,18.70
2013,09,17,16,30,18.70
2013,09,17,16,31,18.70
2013,09,17,16,32,18.70
2013,09,17,16,33,18.70
2013,09,17,16,34,18.70
2013,09,17,16,35,18.80
2013,09,17,16,36,18.80
2013,09,17,16,37,18.80
2013,09,17,16,38,18.80
2013,09,17,16,39,18.80
2013,09,17,16,40,18.80
2013,09,17,16,41,18.70
2013,09,17,16,42,18.70
2013,09,17,16,43,18.70
2013,09,17,16,44,18.70
2013,09,17,16,45,18.70
2013,09,17,16,46,18.70
2013,09,17,16,47,18.70
2013,09,17,16,48,18.70
2013,09,17,16,49,18.70
2013,09,17,16,50,18.70
2013,09,17,16,51,18.70
2013,09,17,16,52,18.70
2013,09,17,16,53,18.70
2013,09,17,16,54,18.70
2013,09,17,16,55,18.80
2013,09,17,16,56,18.80
2013,09,17,16,57,18.80
2013,09,17,16,58,18.80
2013,09,17,16,59,18.80
2013,09,17,17,00,18.80
2013,09,17,17,01,18.80
2013,09,17,17,02,18.80
2013,09,17,17,03,18.90
2013,09,17,17,04,18.90
2013,09,17,17,05,18.90
2013,09,17,17,06,18.90
2013,09,17,17,07,18.90
2013,09,17,17,08,18.90
2013,09,17,17,09,18.90
2013,09,17,17,10,18.90
2013,09,17,17,11,18.90
2013,09,17,17,12,18.90
2013,09,17,17,13,18.90
2013,09,17,17,14,18.90
2013,09,17,17,15,18.90
2013,09,17,17,16,18.90
2013,09,17,17,17,18.90
2013,09,17,17,18,18.90
2013,09,17,17,19,18.90
2013,09,17,17,20,18.80
2013,09,17,17,21,18.80
2013,09,17,17,22,18.80
2013,09,17,17,23,18.80
2013,09,17,17,24,18.70
2013,09,17,17,25,18.70
2013,09,17,17,26,18.60
2013,09,17,17,27,18.50
2013,09,17,17,28,18.50